Date String (YYYY-MM-DD hh:mm:ss) UTC,Instrument flags,Ambient pressure (hPa),Sample flow (lpm),Bypass flow (lpm),Sample temperature (°C),Ambient temperature (°C),ASC tube jacket temperature (°C),LED temperature (°C),Box temperature (°C),Sample RH (%),Span deviation,Mass concentration (μg/m³),Mass concentration (μg/m³),Mass concentration (μg/m³)
DateTimeUTC,F1_M11,P_M11,Q1_M11,Q2_M11,T1_M11,T2_M11,T3_M11,T4_M11,T5_M11,U1_M11,ZSPAN_M11,X0_M11,X2_M11,X1_M11
2022-09-13 06:00:00,,0827.2,5.00,0.00,30.5,29.0,00.0,39.2,32.2,10.0,0002.1,0015.18,0009.45,0008.85
2022-09-13 06:01:00,,0827.2,5.00,0.00,30.5,29.0,00.0,39.2,32.2,09.8,0002.1,0015.14,0009.43,0008.85
2022-09-13 06:02:00,,0827.2,5.00,0.00,30.5,29.0,00.0,39.2,32.2,09.8,0001.8,0014.49,0009.43,0008.85
2022-09-13 06:03:00,,0827.1,5.00,0.00,30.5,29.0,00.0,39.3,32.2,10.4,0001.4,0014.29,0009.45,0008.86
2022-09-13 06:04:00,,0827.2,5.00,0.00,30.5,29.0,00.0,39.3,32.2,09.8,0001.7,0013.98,0009.44,0008.86
2022-09-13 06:05:00,,0827.2,5.00,0.00,30.5,29.0,00.0,39.3,32.2,09.8,0001.5,0014.58,0009.45,0008.85
2022-09-13 06:06:00,,0827.2,4.99,0.00,30.5,29.0,00.0,39.3,32.2,10.0,0001.5,0014.54,0009.44,0008.83
2022-09-13 06:07:00,,0827.2,4.99,0.00,30.5,29.0,00.0,39.3,32.2,10.2,0001.9,0014.57,0009.44,0008.84
2022-09-13 06:08:00,,0827.2,4.99,0.00,30.5,29.0,00.0,39.3,32.2,09.9,0001.8,0014.77,0009.45,0008.85
2022-09-13 06:09:00,,0827.2,5.00,0.00,30.5,29.0,00.0,39.3,32.2,10.0,0001.6,0014.92,0009.46,0008.86
2022-09-13 06:10:00,,0827.2,5.00,0.00,30.5,28.9,00.0,39.3,32.2,09.9,0002.3,0014.60,0009.45,0008.86
2022-09-13 06:11:00,,0827.2,5.01,0.00,30.5,28.9,00.0,39.3,32.2,10.1,0002.5,0014.28,0009.43,0008.86
2022-09-13 06:12:00,,0827.2,5.00,0.00,30.5,29.0,00.0,39.3,32.3,10.3,0002.4,0014.36,0009.44,0008.87
2022-09-13 06:13:00,,0827.1,5.00,0.00,30.5,29.0,00.0,39.3,32.3,10.5,0002.6,0014.49,0009.45,0008.87
2022-09-13 06:14:00,,0827.1,5.00,0.00,30.5,28.9,00.0,39.3,32.2,10.4,0002.5,0015.67,0009.51,0008.88
2022-09-13 06:15:00,,0827.1,5.00,0.00,30.5,28.9,00.0,39.3,32.2,10.7,0002.8,0015.53,0009.51,0008.88
2022-09-13 06:16:00,,0827.1,5.01,0.00,30.5,29.0,00.0,39.3,32.2,10.5,0003.0,0015.05,0009.52,0008.89
2022-09-13 06:17:00,,0827.1,5.00,0.00,30.5,29.0,00.0,39.3,32.2,10.2,0002.8,0015.16,0009.56,0008.92
2022-09-13 06:18:00,,0827.1,5.00,0.00,30.5,29.0,00.0,39.3,32.2,10.4,0002.5,0015.05,0009.53,0008.91
2022-09-13 06:19:00,,0827.1,5.00,0.00,30.5,28.9,00.0,39.3,32.2,10.3,0002.6,0014.75,0009.50,0008.89
2022-09-13 06:20:00,,0827.1,5.00,0.00,30.5,28.9,00.0,39.3,32.2,10.0,0002.8,0014.39,0009.50,0008.89
2022-09-13 06:21:00,,0827.2,5.00,0.00,30.5,28.9,00.0,39.3,32.2,10.0,0002.2,0014.43,0009.49,0008.89
2022-09-13 06:22:00,,0827.1,5.00,0.00,30.5,28.9,00.0,39.3,32.2,10.2,0001.8,0014.67,0009.47,0008.88
2022-09-13 06:23:00,,0827.1,5.01,0.00,30.5,28.9,00.0,39.3,32.2,09.8,0001.9,0015.75,0009.46,0008.88
2022-09-13 06:24:00,,0827.2,5.00,0.00,30.5,28.9,00.0,39.3,32.2,10.0,0001.7,0015.97,0009.46,0008.89
2022-09-13 06:25:00,,0827.3,5.00,0.00,30.4,28.9,00.0,39.3,32.2,09.9,0002.1,0015.08,0009.40,0008.87
2022-09-13 06:26:00,,0827.1,5.00,0.00,30.4,28.9,00.0,39.3,32.2,09.9,0001.5,0015.19,0009.39,0008.87
2022-09-13 06:27:00,,0827.1,4.99,0.00,30.5,28.9,00.0,39.3,32.2,09.9,0001.7,0014.80,0009.37,0008.87
2022-09-13 06:28:00,,0827.1,5.00,0.00,30.5,28.9,00.0,39.3,32.2,09.7,0001.7,0014.79,0009.36,0008.86
2022-09-13 06:29:00,,0827.2,5.00,0.00,30.5,28.9,00.0,39.3,32.2,09.8,0002.0,0014.89,0009.41,0008.87
2022-09-13 06:30:00,,0827.0,5.00,0.00,30.5,28.9,00.0,39.3,32.2,09.7,0001.9,0014.93,0009.40,0008.86
2022-09-13 06:31:00,,0827.3,5.00,0.00,30.5,29.0,00.0,39.3,32.2,09.8,0002.2,0014.97,0009.38,0008.86
2022-09-13 06:32:00,,0827.3,5.00,0.00,30.5,29.0,00.0,39.3,32.2,09.8,0002.5,0015.02,0009.38,0008.86
2022-09-13 06:33:00,,0827.2,5.00,0.00,30.5,29.0,00.0,39.3,32.2,09.7,0002.9,0015.10,0009.41,0008.85
2022-09-13 06:34:00,,0827.4,5.01,0.00,30.5,28.9,00.0,39.3,32.2,09.7,0002.6,0014.03,0009.39,0008.82
2022-09-13 06:35:00,,0827.4,5.00,0.00,30.5,28.9,00.0,39.3,32.2,09.8,0002.9,0013.79,0009.41,0008.79
2022-09-13 06:36:00,,0827.3,5.00,0.00,30.5,28.9,00.0,39.3,32.2,09.7,0002.6,0013.53,0009.39,0008.79
2022-09-13 06:37:00,,0827.1,5.00,0.00,30.5,28.9,00.0,39.3,32.2,09.7,0002.8,0013.39,0009.38,0008.79
2022-09-13 06:38:00,,0827.1,5.02,0.00,30.5,28.9,00.0,39.3,32.2,09.7,0002.7,0013.32,0009.35,0008.78
2022-09-13 06:39:00,,0827.0,5.00,0.00,30.5,28.9,00.0,39.3,32.2,09.7,0003.0,0013.85,0009.30,0008.76
2022-09-13 06:40:00,,0827.0,5.00,0.00,30.5,28.9,00.0,39.3,32.2,09.8,0002.6,0014.03,0009.26,0008.74
2022-09-13 06:41:00,,0827.0,5.00,0.00,30.4,28.9,00.0,39.3,32.2,09.8,0002.3,0014.64,0009.32,0008.77
2022-09-13 06:42:00,,0827.0,5.00,0.00,30.4,28.9,00.0,39.3,32.2,09.8,0002.5,0014.64,0009.36,0008.78
2022-09-13 06:43:00,,0827.0,5.01,0.00,30.4,28.9,00.0,39.3,32.2,09.8,0002.0,0014.60,0009.39,0008.81
2022-09-13 06:44:00,,0827.0,5.00,0.00,30.4,28.9,00.0,39.3,32.2,09.8,0002.6,0014.36,0009.40,0008.84
2022-09-13 06:45:00,,0827.0,4.99,0.00,30.5,28.9,00.0,39.3,32.2,09.8,0002.9,0014.43,0009.42,0008.89
2022-09-13 06:46:00,,0827.0,5.00,0.00,30.4,28.9,00.0,39.3,32.2,09.8,0003.2,0014.50,0009.46,0008.94
2022-09-13 06:47:00,,0827.0,5.01,0.00,30.4,28.9,00.0,39.3,32.2,09.9,0003.7,0014.54,0009.49,0008.99
2022-09-13 06:48:00,,0827.0,4.99,0.00,30.4,28.9,00.0,39.3,32.2,09.8,0003.6,0014.49,0009.51,0009.02
2022-09-13 06:49:00,,0827.1,4.99,0.00,30.4,28.9,00.0,39.3,32.2,09.8,0003.5,0014.58,0009.53,0009.03
2022-09-13 06:50:00,,0827.0,5.00,0.00,30.4,28.9,00.0,39.3,32.2,10.0,0003.4,0014.16,0009.59,0009.07
2022-09-13 06:51:00,,0827.0,5.00,0.00,30.4,28.8,00.0,39.3,32.2,10.0,0003.1,0014.03,0009.64,0009.12
2022-09-13 06:52:00,,0827.0,5.00,0.00,30.4,28.8,00.0,39.3,32.2,10.1,0003.3,0013.58,0009.64,0009.13
2022-09-13 06:53:00,,0827.1,5.01,0.00,30.4,28.9,00.0,39.3,32.2,09.9,0003.2,0014.95,0009.67,0009.15
2022-09-13 06:54:00,,0827.1,4.99,0.00,30.4,28.9,00.0,39.3,32.2,10.2,0003.5,0015.06,0009.67,0009.14
2022-09-13 06:55:00,,0827.1,5.00,0.00,30.4,28.8,00.0,39.3,32.2,09.9,0002.7,0015.10,0009.65,0009.12
2022-09-13 06:56:00,,0827.0,5.01,0.00,30.4,28.8,00.0,39.3,32.2,10.0,0002.9,0015.09,0009.66,0009.11
2022-09-13 06:57:00,,0827.0,5.00,0.00,30.4,28.8,00.0,39.3,32.1,10.0,0002.5,0015.69,0009.64,0009.09
2022-09-13 06:58:00,,0826.9,4.99,0.00,30.4,28.8,00.0,39.3,32.1,09.9,0001.9,0015.85,0009.66,0009.06
2022-09-13 06:59:00,,0826.9,5.00,0.00,30.4,28.8,00.0,39.3,32.1,09.9,0002.3,0016.20,0009.67,0009.05
